Regional Weather Roundup
Issued by NWS Wakefield, VA

Home | Current Version | Previous Version | Graphics & Text | Print | Product List | Glossary On
Versions: 1 2 3 4 5 6 7 8 9 10 11 12 13 14 15 16 17 18 19 20 21 22 23 24 25 26 27 28
000
ASUS41 KAKQ 231015
RWRAKQ

REGIONAL WEATHER ROUNDUP
NATIONAL WEATHER SERVICE WAKEFIELD VA
500 AM EST FRI FEB 23 2018

Note: "fair" indicates few or no clouds below 12,000 feet with no
significant weather and/or obstructions to visibility. * = Denotes
station may not report precipitation (e.g., rain,snow,etc.),
thunder or fog.

VAZ042-051-052>054-056-231100-
NORTHERN VIRGINIA

CITY           SKY/WX    TMP DP  RH WIND       PRES   REMARKS
WASH NATIONAL  DRIZZLE   42  40  92 E6        30.58F FOG
DULLES         DRIZZLE   39  39 100 E5        30.57F
FORT BELVOIR   CLOUDY    41  37  87 CALM      30.57F
QUANTICO       DRIZZLE   42  41  96 CALM      30.60S
FREDERICKSBRG* CLOUDY    41  41 100 E5        30.57S
STAFFORD*      CLOUDY    41  41 100 NE5       30.61S FOG
WARRENTON      CLOUDY    41  38  89 E3        30.57R FOG
CULPEPER*      CLOUDY    41  39  93 CALM      30.58S FOG
MANASSAS*      LGT RAIN  40  39  97 E3        30.58S FOG
LEESBURG*      DRIZZLE   37  37 100 SE3       30.58S
WINCHESTER     CLOUDY    37  37 100 E3        30.55S FOG
FRONT ROYAL*   CLOUDY    39  39 100 E6        30.52F
LURAY*         LGT RAIN  41  41 100 N3        30.53S
$$

VAZ048-049-060>072-079>083-231100-
CENTRAL AND SOUTH CENTRAL VIRGINIA

CITY           SKY/WX    TMP DP  RH WIND       PRES   REMARKS
RICHMOND       DRIZZLE   42  41  96 E7        30.55R
CHESTERFIELD*  CLOUDY    43  41  93 NE6       30.54S
PETERSBURG*    CLOUDY    44  42  93 N10       30.54S FOG
HANOVER        CLOUDY    42  41  96 VRB5      30.56S FOG
TAPPAHANNOCK*  CLOUDY    42  41  98 NE6       30.56S FOG
QUINTON*       CLOUDY    41  41 100 NE5       30.55R
CHARLOTTSVILLE CLOUDY    43  41  93 NE7       30.54S FOG
GORDONSVILLE*  CLOUDY    41  41 100 NE8       30.54S FOG
ORANGE*        CLOUDY    39  39 100 CALM      30.56R FOG
LOUISA*        DRIZZLE   41  40  97 NE6       30.59S FOG
BUMPASS*       NOT AVBL
FARMVILLE*     CLOUDY   N/A N/A N/A NE8       30.51S HAZE
CREWE*         CLOUDY    45  45 100 NE3       30.52R
FORT PICKETT*  CLOUDY    44  44 100 NE7       30.52S
CHASE CITY*    CLOUDY    47  47 100 NE3       30.50S
CLARKSVILLE*   CLOUDY    48  48 100 NE6       30.50R
SOUTH HILL*    CLOUDY    46  46 100 NE3       30.56S
LAWRENCEVILLE* CLOUDY    46  45  97 NE5       30.51F
EMPORIA*       CLOUDY    45  45 100 N5        30.54R
$$

VAZ088>098-231100-
SOUTHEAST VIRGINIA

CITY           SKY/WX    TMP DP  RH WIND       PRES   REMARKS
NORFOLK        CLOUDY    46  46 100 N9        30.52S FOG
VIRGINIA BEACH DRZL/FOG  45  43  93 N10       30.51S VSB 1
NORFOLK NAVAL  CLOUDY    45  43  93 N12       30.54S FOG
WEST POINT*    CLOUDY    42  41  96 CALM      30.57S
SALUDA*        CLOUDY    42  42 100 N3        30.54F
NEWPORT NEWS   CLOUDY    44  43  96 NE6       30.53F FOG
LANGLEY AFB    CLOUDY    44  44 100 N12       30.53S FOG
FORT EUSTIS    CLOUDY    44  42  93 NE3       30.51F
WILLIAMSBURG*  CLOUDY    46  43  87 CALM      30.55F
HR EXEC AP*    CLOUDY    45  44  97 VRB3      30.54R FOG
FRANKLIN*      CLOUDY    45  45  99 NE8       30.54S FOG
US460-WAKEFLD  CLOUDY    44  44 100 VRB3      30.53F FOG
$$

VAZ020-022-025-037-045-231100-
WEST CENTRAL AND SOUTHWEST VIRGINIA

CITY           SKY/WX    TMP DP  RH WIND       PRES   REMARKS
STAUNTON*      DRIZZLE   40  40  99 CALM      30.53S
WAYNESBORO*    CLOUDY    40  40  99 SE6       30.50S
HOT SPRINGS VA DRZL/FOG  49  49 100 S10       30.46R VSB<1/4
LYNCHBURG      CLOUDY    44  43  96 NE8       30.50S FOG
DANVILLE       CLOUDY    49  49 100 NE7       30.49R
SOUTH BOSTON*  CLOUDY    49  48  96 NE7       30.50R
MARTINSVILLE   CLOUDY    50  46  86 NE7       30.50S
ROANOKE        CLOUDY    47  46  97 SE9       30.51R FOG
BLACKSBURG     CLOUDY    50  49  97 SE5       30.48R
DUBLIN*        CLOUDY    55  52  92 E7        30.45S
MARION*        FOG       54  51  90 CALM      30.45S VSB 1/2
HILLSVILLE*    CLOUDY    58  57  96 SE5       30.43R FOG
RICHLANDS*     FAIR      60  56  84 CALM      30.41S
WISE*          FAIR      61  57  88 CALM      30.41F
ABINGDON*      FAIR      56  55  95 CALM      30.40S
$$

MDZ021>025-VAZ099-100-231100-
SOUTHERN MARYLAND AND THE DELMARVA PENINSULA

CITY           SKY/WX    TMP DP  RH WIND       PRES   REMARKS
PATUXENT RIVER CLOUDY    41  41 100 N7        30.57R FOG
BAY BRIDGE APT CLOUDY    39  37  93 NE5       30.58F FOG
LEONARDTOWN    CLOUDY    39  37  93 CALM      30.58S
DOVER          CLOUDY    39  37  93 NE6       30.59F
GEORGETOWN     LGT RAIN  42  39  89 NE15      30.58R FOG
EASTON         CLOUDY    41  38  92 E7        30.61F FOG
CAMBRIDGE      CLOUDY    41  39  93 NE6G13    30.57F FOG
SALISBURY      CLOUDY    42  41  96 NE10      30.55F FOG
OCEAN CITY     CLOUDY    42  42 100 NE10      30.57R FOG
WALLOPS ISLAND CLOUDY    45  44  97 NE12      30.55R FOG
ACCOMACK*      CLOUDY    45  44  97 NE9       30.53S FOG
$$

NCZ012>017-030>032-231100-
NORTH CENTRAL AND EASTERN NORTH CAROLINA

CITY           SKY/WX    TMP DP  RH WIND       PRES   REMARKS
ROANOKE RAPIDS CLOUDY    46  46 100 CALM      30.50F FOG
RALEIGH        CLOUDY    58  55  90 NE9       30.46R
ELIZABETH CITY CLOUDY    48  48 100 N10       30.51S FOG
AHOSKIE*       DRIZZLE   45  45 100 NE6       30.51F
EDENTON*       CLOUDY    49  48  97 NE5       30.51S FOG
CURRITUCK*     CLOUDY    45  44  97 N13G20    30.52R FOG
KILL DEVIL HLS CLOUDY   N/A N/A N/A N6        30.49R FOG
MANTEO         NOT AVBL
CAPE HATTERAS  CLOUDY    56  56 100 N8        30.46R
TARBORO*       NOT AVBL
GOLDSBORO      CLOUDY    61  60  96 NE3       30.44R
WASHINGTON     CLOUDY    51  50  94 NE5       30.49R
GREENVILLE     CLOUDY    52  52 100 NE7       30.48S
NEW BERN       MOCLDY    61  61 100 N5        30.46R
WILMINGTON     FOG       55  55 100 NE3       30.43S VSB 1/4
$$

VAZ048-231100-
ELSEWHERE

CITY           SKY/WX    TMP DP  RH WIND       PRES   REMARKS
HARRISBURG PA  DRIZZLE   38  36  92 E8        30.57F FOG
BALTIMORE      CLOUDY    39  38  96 E9        30.57F
ANNAPOLIS      CLOUDY    42  40  92 NE6       30.58F FOG
ANDREWS AFB    CLOUDY    39  37  93 E6        30.56F
PHILADELPHIA   CLOUDY    38  34  85 E9        30.63R
HENDERSON NC   FOG       46  46  97 NE7       30.49R VSB 1/2
GREENSBORO     CLOUDY    53  51  93 NE10      30.44S
ROCKY MOUNT    CLOUDY    51  50  96 NE10      30.48S FOG
$$

VAZ100-231100-
MARINE

STATION/POSITION TIME  TEMP    WIND        PRES    WAVE   SWELL
                       AIR SEA DIR/SP/G            HT/PER HT/PER
                 (UTC) (F)     (DEG/KT/KT) (MB)    (FT/S) (FT/S)
BRANDYWINE LGT   0942   41      70/ 19/ 23 1035.9R
CAPE MAY NJ      0942   40 44   70/ 11/ 19 1035.2R
LEWES DE         0942   41 43   60/ 17/ 19 1035.7R
15NM E FENWICK I 0950   44 43   40/ 17/ 19 1034.5R   7/ 8   3/14
OCEAN-CITY-INLET 0948   42 41   30/  7/ 11 1035.5R
WACHAPREAGUE VA  0948   45 52   30/ 12/ 18 1033.9R
THOMAS POINT MD  1000   39 42   60/  7/  8   N/A
GOOSES REEF MD   1000   41 42   80/  8/ 10 1030.5    1/ 2
COVE POINT MD    0948   40      30/  7/  9 1036.1F
SOLOMONS ISLAND  0948   40 43   30/  5/  7 1034.7F
BISHOPS HEAD MD  0948   42 48   50/ 11/ 13 1034.9F
PINEY POINT MD   0936           50/  3/  5   N/A
POTOMAC MD       1000   41 43  270/ 10/ 12 1034.2    1
CAMBRIDGE MD     0948   41 48              1035.8F
LEWISETTA VA     0948   42 49   50/  6/  9 1034.9F
RAPPAHANNOCK LGT 0936           10/ 10/ 11 1034.7S
YORK RVR RNG VA  0936           20/ 11/ 12 1034.7S
YORKTOWN VA      0936      49   40/  6/  9 1033.9F
DOMINION TERM VA 0936   45      60/  4/  6 1034.3R
KIPTOPEKE VA     0936      48   50/  9/ 14   N/A
CAPE HENRY VA    0936           20/ 16/ 21   N/A
WILLOUBY STN VA  0948           10/  9/ 12 1033.8R
S CRANEY ISL VA  0936           30/ 10/ 13 1033.7R
CAPE HENRY BUOY  1000      44                N/A     5/ 8   2/15
CAPE CHARLES BUO 0951      44                N/A     4/ 8   2/15
64NM E OF VA BCH 0950   50 50  340/ 10/ 12 1032.3R   6/ 8   5/ 8
DUCK PIER NC     0936      46  350/ 21/ 24 1032.0R
44100 DUCK FRF   0945      48                N/A     4/13   2/13
44056 DUCK FRF   1000      46                N/A     4/15   2/15
OREGON INLET NC  0936   46 58  340/  7/ 12 1032.1R
HATTERAS NC      0936   56 61   20/ 11/ 12 1031.2R
DIAMOND SHLS NC  1000   63 74  360/ 10/ 14 1031.5
CAPE LOOKOUT NC  1000          150/  4/  4 1031.1R
$$




USA.gov is the U.S. government's official web portal to all federal, state and local government web resources and services.